Location: Monroe
(41.9160°N, 83.3980°W)
Time: 13:14:23
(UTC-05:00)

Daily predictions for brighter satellites

Satellite Brightness Start Highest point End
(mag) Time Altitude Azimuth Time Altitude Azimuth Time Altitude Azimuth
Cosmos 1624 Rocket 4.3 18:29:41 10° N 18:34:44 46° ENE 18:39:43 10° SE
COSMOS 2428 3.1 18:29:24 10° NNW 18:35:08 74° WSW 18:40:49 10° SSE
Cosmos 1680 Rocket 3.8 18:30:12 10° SSW 18:35:30 76° WNW 18:40:51 10° NNE
SKYMED 2 3.6 18:32:57 10° NNE 18:37:18 70° ESE 18:41:37 10° S
NOSS 3-2 (A) 3.6 18:33:25 10° SSW 18:39:05 54° ESE 18:45:21 10° NE
ATLAS 3B R/B 2.9 18:34:06 10° SSW 18:41:25 89° NW 18:48:26 10° NE
Tiangong 2 1.1 18:42:52 10° W 18:46:03 74° N 18:49:09 11° E
ERS-2 3.2 18:43:36 10° SE 18:46:41 26° ENE 18:49:46 10° NNE
Cosmos 2233 Rocket 4.0 18:43:33 10° N 18:49:48 62° E 18:55:58 10° SSE
DNEPR-1 R/B 4.0 18:45:57 10° S 18:49:50 37° ESE 18:53:47 10° NE
Meteor 1-27 Rocket 3.9 18:47:24 10° N 18:53:18 88° W 18:59:13 10° S
USA 238 DEB 4.0 18:46:47 10° SW 18:53:39 73° NW 19:00:39 10° NNE
USA 238 4.0 18:46:52 10° SW 18:53:45 74° NW 19:00:46 10° NNE
FREGAT/IRIS 3.7 18:52:12 10° SE 18:54:38 24° ENE 18:57:06 10° NNE
Lacrosse 4 Rocket 3.8 18:51:24 10° NW 18:55:01 28° WSW 18:58:40 10° SSW
EO 1 Del DPAF 3.4 18:51:29 10° NNE 18:55:14 51° E 18:58:58 10° S
Cosmos 1980 3.7 18:51:28 10° NNW 18:57:08 63° ENE 19:02:46 10° SE
FengYun 1-2 T 4.4 18:54:16 10° SE 18:59:34 49° ENE 19:04:50 10° N
Lacrosse 5 1.8 18:55:44 10° NW 19:00:48 70° NE 19:05:50 10° SE
MOS 1 4.4 18:56:13 10° SSE 19:01:53 84° WSW 19:07:36 10° NNW
BREEZE-M R/B 3.8 19:02:21 10° NW 19:04:26 33° NNE 19:07:29 15° E
Cosmos 1633 3.8 19:02:20 10° SE 19:05:02 21° E 19:07:46 10° NE
Cosmos 2084 Rocket 3.4 19:01:45 10° SSW 19:06:09 71° ESE 19:10:21 10° NE
CZ-4 R/B 4.0 19:05:20 10° SSW 19:08:43 25° W 19:12:05 10° NW
Aureole 3 4.4 19:04:34 10° SSE 19:10:42 49° E 19:15:37 10° NNE
Envisat 3.8 19:07:03 10° SE 19:11:20 28° ENE 19:15:38 10° N
Landsat 4 4.0 19:10:44 10° N 19:14:27 69° WNW 19:18:10 10° SSW
ALOS 3.4 19:10:30 10° S 19:15:00 48° W 19:19:33 10° NNW
SJ-6B 3.4 19:12:02 10° SE 19:15:23 32° ENE 19:18:49 10° N
Cosmos 2285 Rocket 4.1 19:11:06 10° SSW 19:17:25 82° WNW 19:23:51 10° NNE
Cosmos 1378 Rocket 4.3 19:13:57 10° NNE 19:17:54 31° ENE 19:21:50 10° SE
USA 215 3.2 19:16:01 10° NE 19:22:34 70° SE 19:29:03 10° SW
Abrixas rocket 4.3 19:21:18 10° W 19:23:58 24° SW 19:26:36 10° SSE
Meteor 1-14 Rocket 4.4 19:19:21 10° S 19:24:55 54° E 19:30:38 10° NNE
COSMO-SKYMED 1 4.3 19:21:22 10° N 19:25:18 34° WNW 19:29:14 10° SW
HJ-1C 3.6 19:22:05 10° SSE 19:25:22 47° ENE 19:28:41 10° N
Cosmos 44 3.9 19:20:46 10° NNW 19:25:28 40° NE 19:28:16 22° ESE
SeaSat 1 2.5 19:21:33 10° SE 19:26:20 54° ENE 19:31:09 10° NNW
Okean 1 4.3 19:23:55 10° NNE 19:27:00 25° ENE 19:27:00 25° ENE
NOSS 3-2 (C) 3.4 19:24:21 10° SSW 19:30:17 88° SE 19:36:53 10° NE
ARGOS Delta rocket 4.3 19:26:07 10° NNE 19:30:42 37° E 19:35:03 10° SSE
Cosmos 2219 Rocket 3.7 19:25:53 10° NW 19:31:04 38° WSW 19:36:13 10° S
Cosmos 2034 Rocket 4.3 19:30:23 10° N 19:36:29 45° ENE 19:42:33 10° SSE
FALCON 9 R/B 4.4 19:31:51 10° WSW 19:39:18 63° S 19:57:37 22° ESE
Cosmos 1891 Rocket 4.5 19:35:02 10° N 19:41:13 58° E 19:47:14 10° SSE
Cosmos 2227 Rocket 2.5 19:36:04 10° SSW 19:41:42 70° WNW 19:47:22 10° NNE
CZ-4C R/B 4.3 19:37:24 10° NNW 19:41:51 18° NNE 19:44:04 16° NE
Cosmos 2237 Rocket 2.7 19:36:48 10° NNW 19:42:21 62° WSW 19:47:51 10° S
SL-16 R/B 2.2 19:38:26 10° NNW 19:44:02 58° ENE 19:47:38 22° SE
H-2A R/B 4.1 19:42:10 10° S 19:45:55 43° W 19:49:40 10° NNW
SL-8 R/B 3.9 19:42:37 10° SW 19:47:15 52° SE 19:48:30 40° E
Meteor 1-20 Rocket 4.1 19:44:39 10° S 19:50:17 74° E 19:56:04 10° NNE
Meteor 1-18 Rocket 4.1 19:45:07 10° N 19:50:45 73° E 19:56:17 10° SSE
Cosmos 1452 Rocket 3.4 19:48:23 10° NNW 19:53:41 86° ENE 19:58:47 11° SSE
Cosmos 1674 Rocket 4.1 19:51:00 10° NNW 19:55:17 58° W 19:59:31 10° S
USA 267 3.6 19:53:08 31° E 19:55:48 47° NNE 20:02:01 10° NW
Cosmos 2297 Rocket 2.6 19:50:37 10° SW 19:56:12 62° WNW 20:01:51 10° NNE
CZ-2D R/B 3.1 19:53:25 17° SSE 19:56:25 87° ENE 20:00:20 10° NNW
Cosmos 1908 Rocket 3.5 19:56:42 10° S 20:01:10 86° W 20:05:40 10° N
Spot 2 Rocket 3.8 20:01:54 42° ENE 20:01:54 42° ENE 20:06:22 10° N
Cosmos 1048 Rocket 4.0 19:57:50 10° S 20:03:03 57° ESE 20:04:54 37° NE
Resurs 1-3 3.9 20:05:47 48° NE 20:05:47 48° NE 20:09:21 10° N
Geosat 3.8 20:02:18 27° NE 20:05:06 72° ESE 20:10:06 10° SSW
CENTAUR R/B 2.4 20:00:19 10° SSW 20:06:13 69° ESE 20:09:52 28° NE
BREEZE-M DEB (TANK) 3.1 20:04:05 10° NW 20:05:29 31° NNW 20:05:29 31° NNW
Cosmos 1812 4.1 20:02:54 10° NNW 20:06:33 40° W 20:10:09 10° SSW
Cosmos 1939 Rocket 4.2 20:10:28 29° N 20:10:28 29° N 20:12:37 10° N
Resurs 01 Rocket 1.9 20:09:59 52° NNE 20:09:59 52° NNE 20:13:36 10° N
Shenzhou-11 Module 4.4 20:08:06 10° WSW 20:10:03 18° SW 20:10:03 18° SW
Meteor 1-25 Rocket 4.4 20:04:43 10° SSW 20:10:14 70° WNW 20:15:48 10° N
Meteor 1-19 Rocket 4.3 20:05:43 10° N 20:10:49 50° ENE 20:10:49 50° ENE
Cosmos 1420 Rocket 4.1 20:12:00 10° NNW 20:17:16 74° WSW 20:20:16 26° S
Iridium 4 Rocket 4.1 20:16:33 10° NNW 20:21:27 52° W 20:25:55 10° SSW
Cosmos 921 Rocket 3.6 20:17:17 10° NNW 20:20:44 50° N 20:20:44 50° N
Cosmos 44 Rocket 3.2 20:17:43 10° NNW 20:22:47 88° ENE 20:23:04 80° SE
Tiangong 2 3.2 20:19:42 10° W 20:21:24 27° W 20:21:24 27° W
Cosmos 158 Rocket 4.2 20:18:10 10° SSW 20:23:01 62° WNW 20:26:38 18° N
Tsikada Rocket 3.9 20:20:40 10° S 20:27:04 82° E 20:33:30 10° N
Cosmos 1975 Rocket 3.9 20:23:46 10° N 20:26:40 41° N 20:26:40 41° N
Thor Agena Rocket 4.5 20:30:04 10° N 20:34:56 46° WNW 20:39:45 10° SW
Lacrosse 5 4.1 20:39:40 10° WNW 20:43:17 20° WSW 20:46:02 13° SSW
Envisat 4.4 20:45:37 10° SSW 20:50:13 35° W 20:54:52 10° NNW
USA 215 4.2 21:03:15 33° NNE 21:05:19 42° NNW 21:11:22 10° W
SL-16 R/B 4.4 21:23:37 10° NW 21:27:38 20° W 21:29:36 17° SW
CZ-4C R/B 3.8 21:25:04 10° NNW 21:29:16 36° N 21:29:16 36° N
USA 267 4.1 21:40:30 45° W 21:40:30 45° W 21:45:10 10° NW
CENTAUR R/B 4.2 21:52:06 10° W 21:57:09 29° NW 21:57:09 29° NW
